Miscellaneous Local Product
Issued by NWS North Platte, NE

Home | Current Version | Previous Version | Graphics & Text | Print | Product List | Glossary On
Versions: 1 2 3 4 5 6 7 8 9 10 11 12 13 14 15 16 17 18 19 20 21 22 23 24 25 26 27 28 29 30 31 32 33 34 35 36 37 38 39 40 41 42 43 44 45 46 47 48 49 50
000
AXUS43 KLBF 170010
MISLBF


WESTERN AND NORTH CENTRAL NEBRASKA HOURLY WEATHER ROUNDUP
NATIONAL WEATHER SERVICE NORTH PLATTE NE
700 PM CDT THU APR 16 2015

***STATIONS NOT REPORTING VARIABLES SUCH AS SKY/WEATHER OR
PRESSURE ARE PROVIDED BY THE NEBRASKA DEPARTMENT OF
ROADS...RAWS...AND APRS NETWORKS...AND ARE NOT UNDER
NATIONAL WEATHER SERVICE QUALITY CONTROL***

...OBSERVATIONS IN AND NEAR THE EASTERN PANHANDLE OF NEBRASKA...

CITY           SKY/WX    TMP DP  RH WIND       PRES   REMARKS
PINE RIDGE     CLOUDY    56  36  47 N10       30.14F
CHADRON        CLOUDY    53  39  59 NE14      30.15F
ALLIANCE       CLOUDY    54  40  59 NE21G28   30.10F
SIDNEY         CLOUDY    48  44  86 NE10      30.10S
WHITECLAY        N/A     54  36  49 N10         N/A
BIG SPRINGS      N/A     56  45  67 NE17        N/A
$$

...OBSERVATIONS IN NORTH CENTRAL NEBRASKA...

CITY           SKY/WX    TMP DP  RH WIND       PRES   REMARKS
VALENTINE      CLOUDY    63  42  46 NE8       30.10S
THEDFORD       CLOUDY    58  52  81 NE6       30.09F
AINSWORTH      DRIZZLE   57  53  86 S3        30.10S
O`NEILL        CLOUDY    61  52  73 CALM      30.10R
ORD            CLOUDY    63  52  67 N8        30.07R
BROKEN BOW     LGT RAIN  60  55  83 NE8       30.06F
BROWNLEE         N/A     60  48  65 E9          N/A
SPRINGVIEW       N/A     65  46  50 CALM        N/A
BREWSTER         N/A     63  52  67 E7          N/A
ROSE             N/A     61  55  81 CALM        N/A
NEWPORT          N/A     63  51  64 E8          N/A
SARGENT          N/A     59  54  84 CALM        N/A
COMSTOCK         N/A     65  59  80 N5          N/A
EWING            N/A     61  53  74 N3          N/A
$$

...OBSERVATIONS IN SOUTHWEST NEBRASKA AND FAR NORTHEAST COLORADO...

CITY           SKY/WX    TMP DP  RH WIND       PRES   REMARKS
WRAY           CLOUDY    52  50  93 NE14      30.05R
HOLYOKE        CLOUDY    54  50  87 NE15      30.06R
IMPERIAL       CLOUDY    53  49  86 NE13      30.04R
OGALLALA       CLOUDY    54  49  85 NE12      30.05F
NORTH PLATTE   CLOUDY    59  50  72 E15       30.07R
MCCOOK         CLOUDY    58  54  86 NE20      30.01R FOG
LEXINGTON      RAIN      57  55  92 E9        30.04F
PAXTON           N/A     56  48  75 NE12        N/A
SUTHERLAND       N/A     52  48  86 NE7         N/A
BRADY            N/A     57  52  83 NW3         N/A
GOTHENBURG       N/A     58  51  78 E8          N/A
CALLAWAY         N/A     58  54  88 E6          N/A
$$

...NORTH PLATTE AREA...

CITY           SKY/WX    TMP DP  RH WIND       PRES   REMARKS
AIRPORT        CLOUDY    59  50  72 E15       30.07R
DOWNTOWN         N/A     58  50  76 NE6         N/A
$$

...SOME WEATHER OBSERVATIONS FROM AROUND THE REGION...

CITY           SKY/WX    TMP DP  RH WIND       PRES   REMARKS
DENVER         SNOW      33  32  96 NW14      30.11S VSB 1/4 WCI  23
LARAMIE        LGT SNOW  30  28  92 N9        30.15S FOG     WCI  22
CHEYENNE       LGT SNOW  33  31  92 N14       30.13F FOG     WCI  23
SCOTTSBLUFF    LGT RAIN  50  42  74 NE9       30.13S
RAPID CITY     PTSUNNY   55  33  43 NW17      30.18R
PIERRE         PTSUNNY   66  37  34 N15       30.08R
WINNER         CLOUDY    69  43  38 CALM      30.08R
SIOUX FALLS    CLOUDY    69  47  45 SW7       30.04R
OMAHA          PTSUNNY   71  49  45 CALM      30.04R
GRAND ISLAND   CLOUDY    66  51  58 NE15      30.05R
KANSAS CITY    PTSUNNY   72  56  57 E9G16     30.01R
WICHITA        PTSUNNY   74  57  55 E10       29.96R
HAYS           CLOUDY    55  48  76 SE10      30.00S
LIBERAL        CLOUDY    61  48  63 E15       29.90F
GOODLAND       CLOUDY    54  50  86 NE10      30.02R
$$



USA.gov is the U.S. government's official web portal to all federal, state and local government web resources and services.